owner,sensor,date,latitude,longitude,vertical_datum,direction_of_sea_water_velocity,sea_water_speed,upward_sea_water_velocity,qcFlag 
TABS,ioos:station:wmo:42043:1,2000-05-01T00:00:00Z,28.9818,-94.9186,2.0,251.5053458,48.8635406,-99999.0,'11111222,11111222,99999999' 
TABS,ioos:station:wmo:42043:1,2000-05-01T00:30:00Z,28.9818,-94.9186,2.0,250.7921477,52.06847223,-99999.0,'11111222,11111222,99999999' 
TABS,ioos:station:wmo:42043:1,2000-05-01T01:00:00Z,28.9818,-94.9186,2.0,252.8857379,49.10425033,-99999.0,'11111222,11111222,99999999' 
TABS,ioos:station:wmo:42043:1,2000-05-01T01:30:00Z,28.9818,-94.9186,2.0,256.1037913,46.5111965,-99999.0,'11111222,11111222,99999999' 
TABS,ioos:station:wmo:42043:1,2000-05-01T02:00:00Z,28.9818,-94.9186,2.0,254.948585,48.75245635,-99999.0,'11111222,11111222,99999999' 
TABS,ioos:station:wmo:42043:1,2000-05-01T02:30:00Z,28.9818,-94.9186,2.0,259.0520441,50.23419154,-99999.0,'11111222,11111222,99999999' 
TABS,ioos:station:wmo:42043:1,2000-05-01T03:00:00Z,28.9818,-94.9186,2.0,262.9910151,46.38660583,-99999.0,'11111222,11111222,99999999' 
TABS,ioos:station:wmo:42043:1,2000-05-01T03:30:00Z,28.9818,-94.9186,2.0,258.6896731,46.35008738,-99999.0,'11111222,11111222,99999999' 
TABS,ioos:station:wmo:42043:1,2000-05-01T04:00:00Z,28.9818,-94.9186,2.0,261.0124554,41.0337544,-99999.0,'11111222,11111222,99999999' 
TABS,ioos:station:wmo:42043:1,2000-05-01T04:30:00Z,28.9818,-94.9186,2.0,262.1313706,38.0582987,-99999.0,'11111222,11111222,99999999' 
TABS,ioos:station:wmo:42043:1,2000-05-01T05:00:00Z,28.9818,-94.9186,2.0,260.6102158,37.45176364,-99999.0,'11111222,11111222,99999999' 
TABS,ioos:station:wmo:42043:1,2000-05-01T05:30:00Z,28.9818,-94.9186,2.0,254.0214579,38.43486568,-99999.0,'11111222,11111222,99999999' 
TABS,ioos:station:wmo:42043:1,2000-05-01T06:00:00Z,28.9818,-94.9186,2.0,253.6675217,36.02362836,-99999.0,'11111222,11111222,99999999' 
TABS,ioos:station:wmo:42043:1,2000-05-01T06:30:00Z,28.9818,-94.9186,2.0,256.4926434,35.70761823,-99999.0,'11111222,11111222,99999999' 
TABS,ioos:station:wmo:42043:1,2000-05-01T07:00:00Z,28.9818,-94.9186,2.0,260.1406282,28.73434356,-99999.0,'11111222,11111222,99999999' 
TABS,ioos:station:wmo:42043:1,2000-05-01T07:30:00Z,28.9818,-94.9186,2.0,250.5183168,36.19197839,-99999.0,'11111222,11111222,99999999' 
TABS,ioos:station:wmo:42043:1,2000-05-01T08:00:00Z,28.9818,-94.9186,2.0,245.2297066,38.40318997,-99999.0,'11111222,11111222,99999999' 
TABS,ioos:station:wmo:42043:1,2000-05-01T08:30:00Z,28.9818,-94.9186,2.0,246.3073074,35.96091489,-99999.0,'11111222,11111222,99999999' 
TABS,ioos:station:wmo:42043:1,2000-05-01T09:00:00Z,28.9818,-94.9186,2.0,238.2373081,40.48274324,-99999.0,'11111222,11111222,99999999' 
TABS,ioos:station:wmo:42043:1,2000-05-01T09:30:00Z,28.9818,-94.9186,2.0,242.3242958,37.850321,-99999.0,'11111222,11111222,99999999' 
TABS,ioos:station:wmo:42043:1,2000-05-01T10:00:00Z,28.9818,-94.9186,2.0,245.3737591,37.53377146,-99999.0,'11111222,11111222,99999999' 
TABS,ioos:station:wmo:42043:1,2000-05-01T10:30:00Z,28.9818,-94.9186,2.0,244.403967,39.65116013,-99999.0,'11111222,11111222,99999999' 
TABS,ioos:station:wmo:42043:1,2000-05-01T11:00:00Z,28.9818,-94.9186,2.0,243.338938,40.18219755,-99999.0,'11111222,11111222,99999999' 
TABS,ioos:station:wmo:42043:1,2000-05-01T11:30:00Z,28.9818,-94.9186,2.0,242.3623019,39.19171851,-99999.0,'11111222,11111222,99999999' 
TABS,ioos:station:wmo:42043:1,2000-05-01T12:00:00Z,28.9818,-94.9186,2.0,239.0757736,39.4241043,-99999.0,'11111222,11111222,99999999' 
TABS,ioos:station:wmo:42043:1,2000-05-01T12:30:00Z,28.9818,-94.9186,2.0,237.189124,37.94319043,-99999.0,'11111222,11111222,99999999' 
TABS,ioos:station:wmo:42043:1,2000-05-01T13:00:00Z,28.9818,-94.9186,2.0,222.4632874,42.82191261,-99999.0,'11111222,11111222,99999999' 
TABS,ioos:station:wmo:42043:1,2000-05-01T13:30:00Z,28.9818,-94.9186,2.0,223.1022643,41.43088944,-99999.0,'11111222,11111222,99999999' 
TABS,ioos:station:wmo:42043:1,2000-05-01T14:00:00Z,28.9818,-94.9186,2.0,216.4961756,46.33698415,-99999.0,'11111222,11111222,99999999' 
TABS,ioos:station:wmo:42043:1,2000-05-01T14:30:00Z,28.9818,-94.9186,2.0,223.7930698,89.99222189,-99999.0,'11111222,11111222,99999999' 
TABS,ioos:station:wmo:42043:1,2000-05-01T15:00:00Z,28.9818,-94.9186,2.0,219.199821,90.75504669,-99999.0,'11111222,11111222,99999999' 
TABS,ioos:station:wmo:42043:1,2000-05-01T15:30:00Z,28.9818,-94.9186,2.0,222.2115469,82.27734804,-99999.0,'11111222,11111222,99999999' 
TABS,ioos:station:wmo:42043:1,2000-05-01T16:00:00Z,28.9818,-94.9186,2.0,225.8709043,83.24316248,-99999.0,'11111222,11111222,99999999' 
TABS,ioos:station:wmo:42043:1,2000-05-01T16:30:00Z,28.9818,-94.9186,2.0,225.1442483,84.0752639,-99999.0,'11111222,11111222,99999999' 
TABS,ioos:station:wmo:42043:1,2000-05-01T17:00:00Z,28.9818,-94.9186,2.0,228.2668911,77.6675711,-99999.0,'11111222,11111222,99999999' 
TABS,ioos:station:wmo:42043:1,2000-05-01T17:30:00Z,28.9818,-94.9186,2.0,232.9306439,70.208424,-99999.0,'11111222,11111222,99999999' 
TABS,ioos:station:wmo:42043:1,2000-05-01T18:00:00Z,28.9818,-94.9186,2.0,233.3688751,70.92861764,-99999.0,'11111222,11111222,99999999' 
TABS,ioos:station:wmo:42043:1,2000-05-01T18:30:00Z,28.9818,-94.9186,2.0,239.1725955,65.41146153,-99999.0,'11111222,11111222,99999999' 
TABS,ioos:station:wmo:42043:1,2000-05-01T19:00:00Z,28.9818,-94.9186,2.0,242.1685471,60.31700589,-99999.0,'11111222,11111222,99999999' 
TABS,ioos:station:wmo:42043:1,2000-05-01T19:30:00Z,28.9818,-94.9186,2.0,244.3251464,59.84888052,-99999.0,'11111222,11111222,99999999' 
TABS,ioos:station:wmo:42043:1,2000-05-01T20:00:00Z,28.9818,-94.9186,2.0,246.3218141,58.24300559,-99999.0,'11111222,11111222,99999999' 
TABS,ioos:station:wmo:42043:1,2000-05-01T20:30:00Z,28.9818,-94.9186,2.0,246.402466,53.98400689,-99999.0,'11111222,11111222,99999999' 
TABS,ioos:station:wmo:42043:1,2000-05-01T21:00:00Z,28.9818,-94.9186,2.0,247.6649834,56.86608919,-99999.0,'11111222,11111222,99999999' 
TABS,ioos:station:wmo:42043:1,2000-05-01T21:30:00Z,28.9818,-94.9186,2.0,248.8797309,55.42283735,-99999.0,'11111222,11111222,99999999' 
TABS,ioos:station:wmo:42043:1,2000-05-01T22:00:00Z,28.9818,-94.9186,2.0,252.6084799,54.33378415,-99999.0,'11111222,11111222,99999999' 
TABS,ioos:station:wmo:42043:1,2000-05-01T22:30:00Z,28.9818,-94.9186,2.0,256.1037913,46.5111965,-99999.0,'11111222,11111222,99999999' 
TABS,ioos:station:wmo:42043:1,2000-05-01T23:00:00Z,28.9818,-94.9186,2.0,258.9834943,39.77287518,-99999.0,'11111222,11111222,99999999' 
TABS,ioos:station:wmo:42043:1,2000-05-01T23:30:00Z,28.9818,-94.9186,2.0,261.0425414,36.35331759,-99999.0,'11111222,11111222,99999999' 
TABS,ioos:station:wmo:42043:1,2000-05-02T00:00:00Z,28.9818,-94.9186,2.0,261.0635883,26.84584325,-99999.0,'11111222,11111222,99999999' 
TABS,ioos:station:wmo:42043:1,2000-05-02T00:30:00Z,28.9818,-94.9186,2.0,268.5578789,23.84754914,-99999.0,'11111222,11111222,99999999' 
TABS,ioos:station:wmo:42043:1,2000-05-02T01:00:00Z,28.9818,-94.9186,2.0,264.145116,19.01920082,-99999.0,'11111222,11111222,99999999' 
TABS,ioos:station:wmo:42043:1,2000-05-02T01:30:00Z,28.9818,-94.9186,2.0,263.1620066,17.55485688,-99999.0,'11111222,11111222,99999999' 
TABS,ioos:station:wmo:42043:1,2000-05-02T02:00:00Z,28.9818,-94.9186,2.0,253.8822879,18.76765835,-99999.0,'11111222,11111222,99999999' 
TABS,ioos:station:wmo:42043:1,2000-05-02T02:30:00Z,28.9818,-94.9186,2.0,253.8360789,16.59602362,-99999.0,'11111222,11111222,99999999' 
TABS,ioos:station:wmo:42043:1,2000-05-02T03:00:00Z,28.9818,-94.9186,2.0,251.376511,15.40669984,-99999.0,'11111222,11111222,99999999' 
TABS,ioos:station:wmo:42043:1,2000-05-02T03:30:00Z,28.9818,-94.9186,2.0,248.6095739,15.51895937,-99999.0,'11111222,11111222,99999999' 
TABS,ioos:station:wmo:42043:1,2000-05-02T04:00:00Z,28.9818,-94.9186,2.0,249.8402643,15.55280039,-99999.0,'11111222,11111222,99999999' 
TABS,ioos:station:wmo:42043:1,2000-05-02T04:30:00Z,28.9818,-94.9186,2.0,262.0253569,17.1558882,-99999.0,'11111222,11111222,99999999' 
TABS,ioos:station:wmo:42043:1,2000-05-02T05:00:00Z,28.9818,-94.9186,2.0,267.2558805,12.53436875,-99999.0,'11111222,11111222,99999999' 
TABS,ioos:station:wmo:42043:1,2000-05-02T05:30:00Z,28.9818,-94.9186,2.0,270.0004209,10.58,-99999.0,'11111222,11111222,99999999' 
TABS,ioos:station:wmo:42043:1,2000-05-02T06:00:00Z,28.9818,-94.9186,2.0,266.6099176,10.14775345,-99999.0,'11111222,11111222,99999999' 
TABS,ioos:station:wmo:42043:1,2000-05-02T06:30:00Z,28.9818,-94.9186,2.0,267.0689134,8.801511234,-99999.0,'11133222,11111222,99999999' 
TABS,ioos:station:wmo:42043:1,2000-05-02T07:00:00Z,28.9818,-94.9186,2.0,273.0344535,8.501917431,-99999.0,'11133222,11111222,99999999' 
TABS,ioos:station:wmo:42043:1,2000-05-02T07:30:00Z,28.9818,-94.9186,2.0,267.2558805,6.267184376,-99999.0,'11133222,11111222,99999999' 
TABS,ioos:station:wmo:42043:1,2000-05-02T08:00:00Z,28.9818,-94.9186,2.0,278.1208861,8.42447031,-99999.0,'11133222,11111222,99999999' 
TABS,ioos:station:wmo:42043:1,2000-05-02T08:30:00Z,28.9818,-94.9186,2.0,270.0004209,9.68,-99999.0,'11133222,11111222,99999999' 
TABS,ioos:station:wmo:42043:1,2000-05-02T09:00:00Z,28.9818,-94.9186,2.0,275.0062418,6.876227163,-99999.0,'11133222,11111222,99999999' 
TABS,ioos:station:wmo:42043:1,2000-05-02T09:30:00Z,28.9818,-94.9186,2.0,267.3199909,6.417016441,-99999.0,'11133222,11111222,99999999' 
TABS,ioos:station:wmo:42043:1,2000-05-02T10:00:00Z,28.9818,-94.9186,2.0,248.6321606,7.355603306,-99999.0,'11133222,11111222,99999999' 
TABS,ioos:station:wmo:42043:1,2000-05-02T10:30:00Z,28.9818,-94.9186,2.0,229.6958906,8.982126697,-99999.0,'11133222,11111222,99999999' 
TABS,ioos:station:wmo:42043:1,2000-05-02T11:00:00Z,28.9818,-94.9186,2.0,167.2741948,14.20902882,-99999.0,'11111222,11111222,99999999' 
TABS,ioos:station:wmo:42043:1,2000-05-02T11:30:00Z,28.9818,-94.9186,2.0,185.4362681,28.28724094,-99999.0,'11111222,11111222,99999999' 
TABS,ioos:station:wmo:42043:1,2000-05-02T12:00:00Z,28.9818,-94.9186,2.0,205.4191286,46.52398629,-99999.0,'11111222,11111222,99999999' 
TABS,ioos:station:wmo:42043:1,2000-05-02T12:30:00Z,28.9818,-94.9186,2.0,210.2922927,50.21651621,-99999.0,'11111222,11111222,99999999' 
TABS,ioos:station:wmo:42043:1,2000-05-02T13:00:00Z,28.9818,-94.9186,2.0,218.2429693,51.98693394,-99999.0,'11111222,11111222,99999999' 
TABS,ioos:station:wmo:42043:1,2000-05-02T13:30:00Z,28.9818,-94.9186,2.0,216.0473972,66.34283081,-99999.0,'11111222,11111222,99999999' 
TABS,ioos:station:wmo:42043:1,2000-05-02T14:00:00Z,28.9818,-94.9186,2.0,223.2117402,70.93613254,-99999.0,'11111222,11111222,99999999' 
TABS,ioos:station:wmo:42043:1,2000-05-02T14:30:00Z,28.9818,-94.9186,2.0,226.9884441,66.62837909,-99999.0,'11111222,11111222,99999999' 
TABS,ioos:station:wmo:42043:1,2000-05-02T15:00:00Z,28.9818,-94.9186,2.0,227.3356155,54.30142632,-99999.0,'11111222,11111222,99999999' 
TABS,ioos:station:wmo:42043:1,2000-05-02T15:30:00Z,28.9818,-94.9186,2.0,227.9913965,50.53508583,-99999.0,'11111222,11111222,99999999' 
TABS,ioos:station:wmo:42043:1,2000-05-02T16:00:00Z,28.9818,-94.9186,2.0,231.7328293,46.67987361,-99999.0,'11111222,11111222,99999999' 
TABS,ioos:station:wmo:42043:1,2000-05-02T16:30:00Z,28.9818,-94.9186,2.0,227.1151843,42.90819968,-99999.0,'11111222,11111222,99999999' 
TABS,ioos:station:wmo:42043:1,2000-05-02T17:00:00Z,28.9818,-94.9186,2.0,220.4797411,37.41624914,-99999.0,'11111222,11111222,99999999' 
TABS,ioos:station:wmo:42043:1,2000-05-02T17:30:00Z,28.9818,-94.9186,2.0,210.32715,36.59834013,-99999.0,'11111222,11111222,99999999' 
TABS,ioos:station:wmo:42043:1,2000-05-02T18:00:00Z,28.9818,-94.9186,2.0,212.4876378,39.39515833,-99999.0,'11111222,11111222,99999999' 
TABS,ioos:station:wmo:42043:1,2000-05-02T18:30:00Z,28.9818,-94.9186,2.0,229.4168465,87.49565075,-99999.0,'11111222,11111222,99999999' 
TABS,ioos:station:wmo:42043:1,2000-05-02T19:00:00Z,28.9818,-94.9186,2.0,236.5766318,107.1137713,-99999.0,'11111222,11111222,99999999' 
TABS,ioos:station:wmo:42043:1,2000-05-02T19:30:00Z,28.9818,-94.9186,2.0,236.1697049,102.2398714,-99999.0,'11111222,11111222,99999999' 
TABS,ioos:station:wmo:42043:1,2000-05-02T20:00:00Z,28.9818,-94.9186,2.0,235.9385399,95.50473548,-99999.0,'11111222,11111222,99999999' 
TABS,ioos:station:wmo:42043:1,2000-05-02T20:30:00Z,28.9818,-94.9186,2.0,231.1800358,92.93780555,-99999.0,'11111222,11111222,99999999' 
TABS,ioos:station:wmo:42043:1,2000-05-02T21:00:00Z,28.9818,-94.9186,2.0,228.2588151,92.66064807,-99999.0,'11111222,11111222,99999999' 
TABS,ioos:station:wmo:42043:1,2000-05-02T21:30:00Z,28.9818,-94.9186,2.0,235.234337,87.79121824,-99999.0,'11111222,11111222,99999999' 
TABS,ioos:station:wmo:42043:1,2000-05-02T22:00:00Z,28.9818,-94.9186,2.0,239.5125845,83.69077607,-99999.0,'11111222,11111222,99999999' 
TABS,ioos:station:wmo:42043:1,2000-05-02T22:30:00Z,28.9818,-94.9186,2.0,246.8786149,69.82882499,-99999.0,'11111222,11111222,99999999' 
TABS,ioos:station:wmo:42043:1,2000-05-02T23:00:00Z,28.9818,-94.9186,2.0,243.3214964,65.70474945,-99999.0,'11111222,11111222,99999999' 
TABS,ioos:station:wmo:42043:1,2000-05-02T23:30:00Z,28.9818,-94.9186,2.0,241.6108107,58.59677551,-99999.0,'11111222,11111222,99999999' 
TABS,ioos:station:wmo:42043:1,2000-05-03T00:00:00Z,28.9818,-94.9186,2.0,231.6622314,53.57157175,-99999.0,'11111222,11111222,99999999' 
TABS,ioos:station:wmo:42043:1,2000-05-03T00:30:00Z,28.9818,-94.9186,2.0,224.6151556,63.21676993,-99999.0,'11111222,11111222,99999999' 
TABS,ioos:station:wmo:42043:1,2000-05-03T01:00:00Z,28.9818,-94.9186,2.0,220.4969784,60.34689884,-99999.0,'11111222,11111222,99999999' 
TABS,ioos:station:wmo:42043:1,2000-05-03T01:30:00Z,28.9818,-94.9186,2.0,213.5946747,73.52006529,-99999.0,'11111222,11111222,99999999' 
TABS,ioos:station:wmo:42043:1,2000-05-03T02:00:00Z,28.9818,-94.9186,2.0,210.8261335,63.67589261,-99999.0,'11111222,11111222,99999999' 
TABS,ioos:station:wmo:42043:1,2000-05-03T02:30:00Z,28.9818,-94.9186,2.0,216.3599088,53.28410833,-99999.0,'11111222,11111222,99999999' 
TABS,ioos:station:wmo:42043:1,2000-05-03T03:00:00Z,28.9818,-94.9186,2.0,208.6072435,46.67850576,-99999.0,'11111222,11111222,99999999' 
TABS,ioos:station:wmo:42043:1,2000-05-03T03:30:00Z,28.9818,-94.9186,2.0,207.3350938,39.91742101,-99999.0,'11111222,11111222,99999999' 
TABS,ioos:station:wmo:42043:1,2000-05-03T04:00:00Z,28.9818,-94.9186,2.0,211.0984889,32.02230473,-99999.0,'11111222,11111222,99999999' 
TABS,ioos:station:wmo:42043:1,2000-05-03T04:30:00Z,28.9818,-94.9186,2.0,218.3685529,27.37136643,-99999.0,'11111222,11111222,99999999' 
TABS,ioos:station:wmo:42043:1,2000-05-03T05:00:00Z,28.9818,-94.9186,2.0,228.4412619,38.6352818,-99999.0,'11111222,11111222,99999999' 
TABS,ioos:station:wmo:42043:1,2000-05-03T05:30:00Z,28.9818,-94.9186,2.0,215.2792257,41.7961003,-99999.0,'11111222,11111222,99999999' 
TABS,ioos:station:wmo:42043:1,2000-05-03T06:00:00Z,28.9818,-94.9186,2.0,215.6500013,60.32566618,-99999.0,'11111222,11111222,99999999' 
TABS,ioos:station:wmo:42043:1,2000-05-03T06:30:00Z,28.9818,-94.9186,2.0,219.6663513,54.39278721,-99999.0,'11111222,11111222,99999999' 
TABS,ioos:station:wmo:42043:1,2000-05-03T07:00:00Z,28.9818,-94.9186,2.0,211.2309811,64.64881128,-99999.0,'11111222,11111222,99999999' 
TABS,ioos:station:wmo:42043:1,2000-05-03T07:30:00Z,28.9818,-94.9186,2.0,215.0223234,67.50308141,-99999.0,'11111222,11111222,99999999' 
TABS,ioos:station:wmo:42043:1,2000-05-03T08:00:00Z,28.9818,-94.9186,2.0,213.7912622,70.46367646,-99999.0,'11111222,11111222,99999999' 
TABS,ioos:station:wmo:42043:1,2000-05-03T08:30:00Z,28.9818,-94.9186,2.0,216.9662102,72.35410286,-99999.0,'11111222,11111222,99999999' 
TABS,ioos:station:wmo:42043:1,2000-05-03T09:00:00Z,28.9818,-94.9186,2.0,217.276555,72.0858183,-99999.0,'11111222,11111222,99999999' 
TABS,ioos:station:wmo:42043:1,2000-05-03T09:30:00Z,28.9818,-94.9186,2.0,212.8435532,70.04686003,-99999.0,'11111222,11111222,99999999' 
TABS,ioos:station:wmo:42043:1,2000-05-03T10:00:00Z,28.9818,-94.9186,2.0,215.0698636,72.08756065,-99999.0,'11111222,11111222,99999999' 
TABS,ioos:station:wmo:42043:1,2000-05-03T10:30:00Z,28.9818,-94.9186,2.0,216.8422837,71.31200811,-99999.0,'11111222,11111222,99999999' 
TABS,ioos:station:wmo:42043:1,2000-05-03T11:00:00Z,28.9818,-94.9186,2.0,220.56678,76.29879422,-99999.0,'11111222,11111222,99999999' 
TABS,ioos:station:wmo:42043:1,2000-05-03T11:30:00Z,28.9818,-94.9186,2.0,221.8126092,68.17153805,-99999.0,'11111222,11111222,99999999' 
TABS,ioos:station:wmo:42043:1,2000-05-03T12:00:00Z,28.9818,-94.9186,2.0,219.4421468,68.48702213,-99999.0,'11111222,11111222,99999999' 
TABS,ioos:station:wmo:42043:1,2000-05-03T12:30:00Z,28.9818,-94.9186,2.0,232.434728,76.50162874,-99999.0,'11111222,11111222,99999999' 
TABS,ioos:station:wmo:42043:1,2000-05-03T13:00:00Z,28.9818,-94.9186,2.0,238.0561275,74.61965425,-99999.0,'11111222,11111222,99999999' 
TABS,ioos:station:wmo:42043:1,2000-05-03T13:30:00Z,28.9818,-94.9186,2.0,238.5547129,75.96626225,-99999.0,'11111222,11111222,99999999' 
TABS,ioos:station:wmo:42043:1,2000-05-03T14:00:00Z,28.9818,-94.9186,2.0,235.6794324,71.61890044,-99999.0,'11111222,11111222,99999999' 
TABS,ioos:station:wmo:42043:1,2000-05-03T14:30:00Z,28.9818,-94.9186,2.0,236.2748894,73.27036236,-99999.0,'11111222,11111222,99999999' 
TABS,ioos:station:wmo:42043:1,2000-05-03T15:00:00Z,28.9818,-94.9186,2.0,234.7245416,76.10347824,-99999.0,'11111222,11111222,99999999' 
TABS,ioos:station:wmo:42043:1,2000-05-03T15:30:00Z,28.9818,-94.9186,2.0,237.5869436,75.89352607,-99999.0,'11111222,11111222,99999999' 
TABS,ioos:station:wmo:42043:1,2000-05-03T16:00:00Z,28.9818,-94.9186,2.0,234.9562927,80.44287228,-99999.0,'11111222,11111222,99999999' 
TABS,ioos:station:wmo:42043:1,2000-05-03T16:30:00Z,28.9818,-94.9186,2.0,235.927625,81.12670645,-99999.0,'11111222,11111222,99999999' 
TABS,ioos:station:wmo:42043:1,2000-05-03T17:00:00Z,28.9818,-94.9186,2.0,238.1678906,66.11343131,-99999.0,'11111222,11111222,99999999' 
TABS,ioos:station:wmo:42043:1,2000-05-03T17:30:00Z,28.9818,-94.9186,2.0,260.9241768,47.23126189,-99999.0,'11111222,11111222,99999999' 
TABS,ioos:station:wmo:42043:1,2000-05-03T18:00:00Z,28.9818,-94.9186,2.0,270.3643519,47.23095277,-99999.0,'11111222,11111222,99999999' 
TABS,ioos:station:wmo:42043:1,2000-05-03T18:30:00Z,28.9818,-94.9186,2.0,279.1541424,40.29313217,-99999.0,'11111222,11111222,99999999' 
TABS,ioos:station:wmo:42043:1,2000-05-03T19:00:00Z,28.9818,-94.9186,2.0,284.4007939,38.92290328,-99999.0,'11111222,11111222,99999999' 
TABS,ioos:station:wmo:42043:1,2000-05-03T19:30:00Z,28.9818,-94.9186,2.0,278.3545373,36.89145701,-99999.0,'11111222,11111222,99999999' 
TABS,ioos:station:wmo:42043:1,2000-05-03T20:00:00Z,28.9818,-94.9186,2.0,268.4131013,37.56439937,-99999.0,'11111222,11111222,99999999' 
TABS,ioos:station:wmo:42043:1,2000-05-03T20:30:00Z,28.9818,-94.9186,2.0,271.4812612,40.24344046,-99999.0,'11111222,11111222,99999999' 
TABS,ioos:station:wmo:42043:1,2000-05-03T21:00:00Z,28.9818,-94.9186,2.0,264.5251122,40.56502558,-99999.0,'11111222,11111222,99999999' 
TABS,ioos:station:wmo:42043:1,2000-05-03T21:30:00Z,28.9818,-94.9186,2.0,248.8266073,42.4989341,-99999.0,'11111222,11111222,99999999' 
TABS,ioos:station:wmo:42043:1,2000-05-03T22:00:00Z,28.9818,-94.9186,2.0,242.3034009,47.11866297,-99999.0,'11111222,11111222,99999999' 
TABS,ioos:station:wmo:42043:1,2000-05-03T22:30:00Z,28.9818,-94.9186,2.0,235.1548098,47.20347974,-99999.0,'11111222,11111222,99999999' 
TABS,ioos:station:wmo:42043:1,2000-05-03T23:00:00Z,28.9818,-94.9186,2.0,241.7467181,51.92613985,-99999.0,'11111222,11111222,99999999' 
TABS,ioos:station:wmo:42043:1,2000-05-03T23:30:00Z,28.9818,-94.9186,2.0,243.3699952,59.5018067,-99999.0,'11111222,11111222,99999999' 
TABS,ioos:station:wmo:42043:1,2000-05-04T00:00:00Z,28.9818,-94.9186,2.0,246.5215673,55.72317381,-99999.0,'11111222,11111222,99999999' 
TABS,ioos:station:wmo:42043:1,2000-05-04T00:30:00Z,28.9818,-94.9186,2.0,240.6907988,52.9705673,-99999.0,'11111222,11111222,99999999' 
TABS,ioos:station:wmo:42043:1,2000-05-04T01:00:00Z,28.9818,-94.9186,2.0,241.7321526,55.99797139,-99999.0,'11111222,11111222,99999999' 
TABS,ioos:station:wmo:42043:1,2000-05-04T01:30:00Z,28.9818,-94.9186,2.0,240.0763231,47.79081502,-99999.0,'11111222,11111222,99999999' 
TABS,ioos:station:wmo:42043:1,2000-05-04T02:00:00Z,28.9818,-94.9186,2.0,240.4103006,47.97681211,-99999.0,'11111222,11111222,99999999' 
TABS,ioos:station:wmo:42043:1,2000-05-04T02:30:00Z,28.9818,-94.9186,2.0,242.1328889,46.85324322,-99999.0,'11111222,11111222,99999999' 
TABS,ioos:station:wmo:42043:1,2000-05-04T03:00:00Z,28.9818,-94.9186,2.0,248.9200756,45.98738631,-99999.0,'11111222,11111222,99999999' 
TABS,ioos:station:wmo:42043:1,2000-05-04T03:30:00Z,28.9818,-94.9186,2.0,247.924704,40.84415503,-99999.0,'11111222,11111222,99999999' 
TABS,ioos:station:wmo:42043:1,2000-05-04T04:00:00Z,28.9818,-94.9186,2.0,253.1241646,37.9961906,-99999.0,'11111222,11111222,99999999' 
TABS,ioos:station:wmo:42043:1,2000-05-04T04:30:00Z,28.9818,-94.9186,2.0,251.2813787,39.01349638,-99999.0,'11111222,11111222,99999999' 
TABS,ioos:station:wmo:42043:1,2000-05-04T05:00:00Z,28.9818,-94.9186,2.0,244.9834125,51.78836645,-99999.0,'11111222,11111222,99999999' 
TABS,ioos:station:wmo:42043:1,2000-05-04T05:30:00Z,28.9818,-94.9186,2.0,238.8232658,48.06109445,-99999.0,'11111222,11111222,99999999' 
TABS,ioos:station:wmo:42043:1,2000-05-04T06:00:00Z,28.9818,-94.9186,2.0,245.5237207,47.47644679,-99999.0,'11111222,11111222,99999999' 
TABS,ioos:station:wmo:42043:1,2000-05-04T06:30:00Z,28.9818,-94.9186,2.0,245.8583239,42.61733215,-99999.0,'11111222,11111222,99999999' 
TABS,ioos:station:wmo:42043:1,2000-05-04T07:00:00Z,28.9818,-94.9186,2.0,241.2950326,44.68095456,-99999.0,'11111222,11111222,99999999' 
TABS,ioos:station:wmo:42043:1,2000-05-04T07:30:00Z,28.9818,-94.9186,2.0,241.3444803,41.9362862,-99999.0,'11111222,11111222,99999999' 
TABS,ioos:station:wmo:42043:1,2000-05-04T08:00:00Z,28.9818,-94.9186,2.0,237.1686921,38.47555718,-99999.0,'11111222,11111222,99999999' 
TABS,ioos:station:wmo:42043:1,2000-05-04T08:30:00Z,28.9818,-94.9186,2.0,235.4736237,37.06901267,-99999.0,'11111222,11111222,99999999' 
TABS,ioos:station:wmo:42043:1,2000-05-04T09:00:00Z,28.9818,-94.9186,2.0,229.5337232,41.32536751,-99999.0,'11111222,11111222,99999999' 
TABS,ioos:station:wmo:42043:1,2000-05-04T09:30:00Z,28.9818,-94.9186,2.0,223.0868606,44.06316375,-99999.0,'11111222,11111222,99999999' 
TABS,ioos:station:wmo:42043:1,2000-05-04T10:00:00Z,28.9818,-94.9186,2.0,220.9161684,41.40722763,-99999.0,'11111222,11111222,99999999' 
TABS,ioos:station:wmo:42043:1,2000-05-04T10:30:00Z,28.9818,-94.9186,2.0,218.5576171,40.39753087,-99999.0,'11111222,11111222,99999999' 
TABS,ioos:station:wmo:42043:1,2000-05-04T11:00:00Z,28.9818,-94.9186,2.0,217.4909923,41.12441854,-99999.0,'11111222,11111222,99999999' 
TABS,ioos:station:wmo:42043:1,2000-05-04T11:30:00Z,28.9818,-94.9186,2.0,219.7199348,41.2650518,-99999.0,'11111222,11111222,99999999' 
TABS,ioos:station:wmo:42043:1,2000-05-04T12:00:00Z,28.9818,-94.9186,2.0,232.2876807,34.83776256,-99999.0,'11111222,11111222,99999999' 
TABS,ioos:station:wmo:42043:1,2000-05-04T12:30:00Z,28.9818,-94.9186,2.0,231.5229691,36.16221923,-99999.0,'11111222,11111222,99999999' 
TABS,ioos:station:wmo:42043:1,2000-05-04T13:00:00Z,28.9818,-94.9186,2.0,227.7816833,80.2734458,-99999.0,'11111222,11111222,99999999' 
TABS,ioos:station:wmo:42043:1,2000-05-04T13:30:00Z,28.9818,-94.9186,2.0,226.8492888,78.43072102,-99999.0,'11111222,11111222,99999999' 
TABS,ioos:station:wmo:42043:1,2000-05-04T14:00:00Z,28.9818,-94.9186,2.0,228.6859366,73.7978543,-99999.0,'11111222,11111222,99999999' 
TABS,ioos:station:wmo:42043:1,2000-05-04T14:30:00Z,28.9818,-94.9186,2.0,231.0504282,63.99613895,-99999.0,'11111222,11111222,99999999' 
TABS,ioos:station:wmo:42043:1,2000-05-04T15:00:00Z,28.9818,-94.9186,2.0,232.8854555,69.88663535,-99999.0,'11111222,11111222,99999999' 
TABS,ioos:station:wmo:42043:1,2000-05-04T15:30:00Z,28.9818,-94.9186,2.0,235.4035275,67.70130353,-99999.0,'11111222,11111222,99999999' 
TABS,ioos:station:wmo:42043:1,2000-05-04T16:00:00Z,28.9818,-94.9186,2.0,236.7285168,67.89989249,-99999.0,'11111222,11111222,99999999' 